www.pogodaiklimat.ru

Погода и климат >> Архив погоды >> Украина >> Харьков


АРХИВ ПОГОДЫ в Харькове

Время (UTC), дата Ветер
(напр.,м/с)
 
Видим.   Явления Облачность Т
(С)
Тd
(С)
f
(%)
Тe
(С)
Тes
(С)
Комфортность P
(гПа)
Po
(гПа)
Тmin
(С)
Tmax
(С)
R
(мм)
R24
(мм)
S
(см)
00 14.05 В 3 10 км 8/0
[Ac trans Ci fib]
+10.1 +7.8 86 +8 +8 по сезону 1019.9 1001.1
03 14.05 СВ 3 10 км 9/6 1380 м
[Sc Ci]
+11.6 +8.1 79 +10 +10 по сезону 1020.1 1001.4
06 14.05 В 7 10 км 9/3 600 м
[Cb cap Ac trans]
+15.1 +8.6 65 +13 +14 по сезону 1020.6 1002.1 +10.0
09 14.05 В 2 10 км слабый ливневой дождь 10/8 300 м
[Cb cap Ac und]
+14.1 +12.1 88 +14 +15 прохладно 1021.2 1002.7
12 14.05 СЗ 2 10 км слабый ливневой дождь 10/8 600 м
[Cb cap Ac und]
+14.1 +12.6 91 +14 +14 холодно 1021.2 1002.7
15 14.05 штиль 0 10 км слабый ливневой дождь 10/10 200 м
[Cb cap]
+13.2 +12.1 93 +13 +13 прохладно 1020.8 1002.2
18 14.05 СЗ 1 10 км {ливн. осадки} 8/0
[Ac trans]
+12.7 +11.8 94 +13 +13 по сезону 1020.2 1001.6 +15.1 11
21 14.05 З 2 200 м туман ?/? +10.6 +10.6 100 +9 +9 прохладно 1020.7 1002.0
00 15.05 З 2 200 м туман ?/? +9.8 +9.8 100 +8 +8 по сезону 1021.1 1002.3
03 15.05 С 2 200 м туман ?/? +10.0 +10.0 100 +8 +8 прохладно 1021.0 1002.2
06 15.05 СЗ 1 10 км {туман} 5/4 100 м
[St Ci]
+13.8 +12.3 91 +14 +20 по сезону 1021.4 1002.9 +9.4
09 15.05 С 3 10 км 6/5 870 м
[Cu hum Ci fib]
+19.0 +12.8 67 +20 +27 тепло 1021.0 1002.8
12 15.05 СЗ 3 10 км 6/6 1260 м
[Cu hum]
+21.8 +11.0 50 +24 +28 комфорт 1020.2 1002.2
15 15.05 С 3 10 км 5/4 1000 м
[Sc diur, vesp Ci fib]
+21.4 +10.9 51 +23 +24 комфорт 1019.2 1001.2
18 15.05 С 1 10 км 3/3 1000 м
[Sc]
+19.0 +10.9 59 +21 +21 комфорт 1019.4 1001.2 +23.6
21 15.05 С 2 10 км 4/0
[Ac trans]
+16.2 +11.6 74 +16 +16 тепло 1019.9 1001.5
00 16.05 З 1 10 км 3/0
[Ac trans]
+13.6 +11.1 85 +14 +14 тепло 1019.4 1000.9
03 16.05 С 1 10 км 4/0
[Ac trans]
+13.1 +11.6 91 +13 +14 по сезону 1019.5 1001.0
06 16.05 ЮЗ 1 10 км 8/3 1000 м
[Cu hum Ac trans Ci]
+19.8 +15.0 74 +23 +28 комфорт 1018.8 1000.7 +11.9
09 16.05 ЮВ 2 10 км 8/6 1260 м
[Cu med, cong Ci fib]
+24.3 +13.6 51 +27 +32 жарко 1017.9 1000.1
12 16.05 В 1 10 км 8/6 1000 м
[Cu med, cong Ci fib]
+25.2 +12.4 45 +27 +32 жарко 1016.8 999.1
15 16.05 ЮВ 3 10 км 6/3 1000 м
[Sc diur, vesp Ci fib]
+25.8 +9.2 35 +26 +28 жарко 1015.4 997.7
18 16.05 ЮВ 2 10 км 6/3 1000 м
[Sc Ci fib]
+21.4 +12.4 56 +24 +24 комфорт 1015.5 997.5 +26.5
21 16.05 ЮВ 2 10 км 4/0
[Ci fib]
+19.1 +11.7 62 +21 +21 комфорт 1015.7 997.6
00 17.05 Ю 2 10 км ясно +17.4 +12.6 73 +18 +18 тепло 1016.0 997.8
03 17.05 ЮВ 2 10 км 8/0
[Ci fib]
+15.8 +13.3 85 +16 +16 тепло 1016.2 997.9
06 17.05 Ю 3 10 км 8/0
[Ac trans Ci fib]
+21.4 +14.2 64 +24 +29 комфорт 1016.5 998.5 +14.3
09 17.05 Ю 5 10 км 8/3 1000 м
[Cu hum Ac trans Ci]
+23.7 +11.9 48 +25 +29 комфорт 1015.8 998.0
12 17.05 Ю 5 10 км слабый ливневой дождь 9/5 800 м
[Cb cap Ac trans]
+24.1 +11.1 44 +25 +27 комфорт 1015.5 997.7
15 17.05 Ю 3 10 км {ливн. осадки} 6/0
[Ac trans Ci fib]
+23.8 +12.3 48 +26 +27 жарко 1014.2 996.4
18 17.05 В 3 10 км {ливн. осадки} 6/0
[Ac trans]
+19.0 +12.4 66 +20 +20 тепло 1013.9 995.8 +24.8 0.0
21 17.05 В 3 10 км 8/0
[Ac trans]
+17.7 +14.2 80 +18 +18 тепло 1013.3 995.2
00 18.05 ЮВ 1 10 км 8/0
[Ac trans Ci fib]
+15.9 +12.8 82 +17 +17 тепло 1012.0 993.8
03 18.05 З 5 10 км слабый ливневой дождь 9/5 1000 м
[Cb cap Ac trans]
+16.3 +13.1 81 +15 +15 тепло 1012.5 994.3
06 18.05 Ю 2 10 км {ливн. осадки} 9/5 300 м
[St Ac trans]
+17.0 +14.2 84 +17 +19 тепло 1011.5 993.4 +15.4 0.8
09 18.05 Ю 4 10 км 9/8 600 м
[Cb calv Ac trans]
+21.0 +15.5 71 +25 +26 комфорт 1010.8 992.9
12 18.05 ЮЗ 3 10 км гроза без осадков {ливн. осадки} 9/9 600 м
[Cb calv]
+21.1 +14.7 67 +24 +25 комфорт 1008.5 990.7
15 18.05 С 1 10 км {гроза, ливн. осадки} 8/4 600 м
[Cb calv Ci fib]
+19.3 +14.1 72 +22 +24 комфорт 1008.8 990.9
18 18.05 В 1 10 км {гроза, ливн. осадки} 8/4 600 м
[Cb calv Ac trans]
+16.6 +15.2 91 +17 +17 по сезону 1009.5 991.4 +22.8 2
21 18.05 ЮВ 2 10 км 6/0
[Ac trans]
+15.1 +13.7 91 +15 +15 тепло 1009.5 991.3
00 19.05 Ю 3 10 км 8/0
[Ac trans]
+14.7 +12.1 84 +14 +14 тепло 1009.6 991.3
03 19.05 Ю 2 10 км слабый ливневой дождь 9/5 600 м
[Cb calv Ac trans]
+13.9 +12.4 91 +13 +13 по сезону 1010.1 991.8
06 19.05 Ю 2 10 км {ливн. осадки} 3/0
[Ac trans Ci fib]
+17.8 +13.6 76 +18 +25 тепло 1010.3 992.2 +12.8 1
09 19.05 Ю 3 10 км слабый ливневой дождь 9/8 630 м
[Cb cap Ac trans]
+20.1 +13.3 65 +22 +24 комфорт 1010.7 992.8
12 19.05 З 8 10 км {ливн. осадки} 8/6 1000 м
[Cu med, cong Ac trans]
+22.1 +11.0 49 +24 +25 комфорт 1010.3 992.5
15 19.05 З 4 10 км 6/6 1000 м
[Sc diur, vesp]
+22.0 +11.5 51 +24 +25 комфорт 1010.4 992.6
18 19.05 штиль 0 10 км 8/0
[Ac trans Ci]
+18.7 +12.3 66 +19 +19 тепло 1012.1 994.0 +23.2 0.4
21 19.05 ЮВ 2 10 км 8/0
[Ac trans Ci fib]
+15.0 +12.5 85 +15 +15 по сезону 1012.8 994.5
00 20.05 штиль 0 8000 м дымка 8/0
[Ac trans Ci fib]
+13.7 +12.0 89 +13 +13 по сезону 1013.1 994.7
03 20.05 штиль 0 8000 м дымка 8/0
[Ac trans Ci fib]
+13.5 +11.8 89 +13 +14 по сезону 1013.6 995.2
06 20.05 штиль 0 10 км в посл. час ливневой дождь 9/4 600 м
[Cb cap Ac trans]
+17.7 +14.0 79 +18 +21 тепло 1013.9 995.8 +12.9 0.0
09 20.05 Ю 4 10 км гроза без осадков {ливн. осадки} 9/6 600 м
[Cb calv Ac trans]
+19.2 +14.0 72 +21 +23 комфорт 1013.8 995.8
12 20.05 ЮЗ 2 10 км слабый ливневой дождь {гроза} 9/6 600 м
[Cb calv Ac trans]
+19.1 +15.0 77 +21 +24 комфорт 1014.0 996.0
15 20.05 С 4 10 км {ливн. осадки} 9/9 270 м
[Cb calv]
+15.6 +14.6 94 +15 +15 прохладно 1014.4 996.1
18 20.05 С 3 10 км {ливн. осадки} 10/10 300 м
[Sc]
+15.3 +13.7 90 +15 +15 по сезону 1015.3 997.0 +20.4 6

 

Местоположение метеостанции Харьков (Харьковская область, Украина): широта 49.97 долгота 36.13 высота над уровнем моря 155 м.

В архиве по умолчанию представлена погода в Харькове за последнюю неделю. Архивные данные за месяц целиком и за предыдущие месяцы, начиная с января 2011 года, Вы можете получить, выбрав интересующий диапазон дат из раскрывающегося списка и нажав кнопку "Ввод!".


*Определитесь, кто Вы:
робот инопланетянин человек

Внимание! Время в таблицах - всемирное. Для получения местного времени необходимо прибавить поправку, которая в Харькове равна 2 ч.

Смотрите также архив погоды в соседних городах и на ближайших метеорологических станциях:

Погода в Золочеве (Львовская область, Украина) (39 км)
Погода в Боходухове (Харьковская область, Украина) (50 км)
Погода в Слобожанском (Донецкая область, Украина) (50 км)
Погода в Коломаке (Харьковская область, Украина) (66 км)
Погода в Белгороде (Белгородская область, Россия) (80 км)
Погода в Краснограде (Харьковская область, Украина) (82 км)
Погода в Великом Бурлуке (Харьковская область, Украина) (90 км)
Погода в Готне (Белгородская область, Россия) (96 км)
Погода в Купянске (Харьковская область, Украина) (119 км)
Погода в Лозовой (Харьковская область, Украина) (120 км)

Пояснения к столбцам:

Ветер - указаны скорость ветра в м/с - средняя за 10 мин, порывы в срок и между сроками (в фигурных скобках) и направление, откуда дует ветер: С - северный, СВ - северо-восточный, В - восточный, ЮВ - юго-восточный, Ю - южный, ЮЗ - юго-западный, З - западный, СЗ - северо-западный.
Видимость - горизонтальная дальность видимости в метрах или километрах. При видимости от 1 до 10 км при отсутствии осадков обычно наблюдается дымка, при ухудшении видимости до 1 км и менее - туман. В сухую погоду видимость может ухудшаться дымом, пылью или мглою.
Явления - указаны атмосферные явления, наблюдавшиеся в срок или в последний час перед сроком; фигурными скобками обозначены явления, наблюдавшиеся между сроками (за 1-3 часа до срока); квадратными скобками обозначены град или гололедные отложения с указанием их диаметра в мм.
Облачность - указаны через наклонную черту общая и нижняя облачность в баллах и высота нижней границы облаков в метрах; квадратными скобками обозначены формы облаков: Ci - перистые, Cs - перисто-слоистые, Cc - перисто-кучевые, Ac - высококучевые, As - высокослоистые, Sc - слоисто-кучевые, Ns - слоисто-дождевые, Cu - кучевые, Cb - кучево-дождевые. Подробнее классификацию облаков см. в Атласе облаков (PDF).
T - Температура воздуха - температура, измеренная на высоте 2 м над землей.
Td - Температура точки росы - температура, при понижении до которой содержащийся в воздухе водяной пар достигнет насыщения.
f - Относительная влажность воздуха - влажноcть воздуха, измеренная на высоте 2 м над землей.
Te - Эффективная температура - температура, которую ощущает одетый по сезону человек в тени. Характеристика душности погоды. При расчете учитывается влияние влажности воздуха и скорости ветра на теплоощущения человека.
Tes - Эффективная температура на солнце - температура, которую ощущает человек, с поправкой на солнечный нагрев. Характеристика знойности погоды. Зависит от высоты солнца над горизонтом, облачности и скорости ветра. Ночью, в пасмурную погоду, а также при ветре 12 м/с и более поправка равна нулю.
P - Атмосферное давление - приведенное к уровню моря атмосферное давление.
Po - Атмосферное давление - измеренное на уровне метеостанции атмосферное давление.
Tmin - Минимальная температура - минимум температуры воздуха на высоте 2 м над землей.
Tmax - Максимальная температура - максимум температуры воздуха на высоте 2 м над землей.
R - Количество осадков - Количество выпавших осадков за период времени, мм. При наведении курсора мыши на число - период времени, за который выпало указанное количество осадков.
R24 - Количество осадков - Количество выпавших осадков за 24 часа, мм.
S - Снежный покров - Высота снежного покрова, см. При наведении курсора мыши на число - состояние снежного покрова и степень покрытия местности в баллах.